Regional Weather Roundup
Issued by NWS Midland/Odessa, TX

Home | Current Version | Previous Version | Text Only | Print | Product List | Glossary On
Versions: 1 2 3 4 5 6 7 8 9 10 11 12 13 14 15 16 17 18 19 20 21 22 23 24 25 26 27 28 29 30 31 32 33 34 35 36 37 38 39 40 41 42 43 44 45 46 47 48 49 50
000
ASUS44 KMAF 261610
RWRMAF
MIDLAND AREA WEATHER ROUNDUP
NATIONAL WEATHER SERVICE MIDLAND TX
1100 AM CDT TUE MAY 26 2015

...IN SOUTHWEST TEXAS AND SOUTHEAST NEW MEXICO...

CITY           SKY/WX    TMP DP  RH WIND       PRES   REMARKS
ALPINE         SUNNY     78  26  14 E3        30.17S
ANDREWS        FAIR      76  45  32 W5        30.04S
ARTESIA        SUNNY     75  39  27 CALM      30.05F
BIG SPRING     PTSUNNY   74  67  76 S13       30.04S
CARLSBAD       SUNNY     77  45  32 E8        30.03S
DRYDEN           N/A     80  69  69 S10       30.00S
FORT STOCKTON  SUNNY     80  36  20 NE3       30.05R
GUAD PASS      SUNNY     72  36  26 SW10      30.16S
HOBBS          SUNNY     72  48  43 SW3       30.06S
MARFA          SUNNY     75  30  19 CALM      30.15S
MIDLAND AIRPK  SUNNY     76  63  63 S13       30.03S
MIDLAND INTL   SUNNY     75  63  66 S13       30.03S
ODESSA         SUNNY     75  60  59 SW10      30.04S
PECOS          SUNNY     74  46  36 CALM      30.03S
PRESIDIO       FAIR      80  24  13 SW3       30.03F
SEMINOLE       SUNNY     77  46  32 NW3       30.05S
SNYDER         CLOUDY    70  65  82 SW8       30.02S
WINK           SUNNY    N/A N/A N/A MISG      30.01F
$$
...OTHER STATIONS IN TEXAS...

CITY           SKY/WX    TMP DP  RH WIND       PRES   REMARKS
ABILENE        SUNNY     77  68  73 S24G33    29.96F
AMARILLO       SUNNY     66  54  65 VRB5      29.98S
AUSTIN         CLOUDY    75  73  93 S12       30.01S
BROWNSVILLE    CLOUDY    87  75  67 SE16      29.96R
CORPUS CHRISTI CLOUDY    83  76  79 SE18      29.98R
DALLAS FTW     DRIZZLE   65  65 100 E5        30.00S FOG
DEL RIO        MOSUNNY   83  72  69 E15G21    29.96S
EL PASO        MOSUNNY   75  39  27 CALM      30.09S
HOUSTON INT    MOSUNNY   81  71  71 SE22      30.01R
LUBBOCK        MOSUNNY   73  51  46 SW14      29.99F
SAN ANGELO     SUNNY     82  69  64 S17G28    29.99S
SAN ANTONIO    CLOUDY    78  72  81 SE9       30.02S
WACO           CLOUDY    77  70  79 S17G24    30.00R
WICHITA FALLS  NOT AVBL
$$
...OTHER LOCATIONS IN NEW MEXICO...

CITY           SKY/WX    TMP DP  RH WIND       PRES   REMARKS
ALAMAGORDO     SUNNY     72  37  28 CALM      30.10F
ALBUQUERQUE    MOSUNNY   62  44  51 CALM      30.15S
CANNON AFB     NOT AVBL
CLOVIS         SUNNY     66  50  55 N7        30.04S
HOLLOMAN AFB   NOT AVBL
ROSWELL        SUNNY     76  41  28 CALM      30.03F
RUIDOSO        SUNNY     63  36  36 NW13G21   30.21F
SANTA FE       SUNNY     60  40  47 W6        30.15F
TRUTH OR CONSE SUNNY     68  41  37 VRB5      30.12S
TUCUMCARI      SUNNY     67  51  56 N8        30.03S
$$


USA.gov is the U.S. government's official web portal to all federal, state and local government web resources and services.